The ArtCat calendar is closed as of December 31, 2012. Please visit Filterizer for art recommendations.


ARTCAT

CALENDAR | HOSTING



Exhibibits at: Cuchifritos

view more locations in East Village / Lower East Side

Pixel Represented by Retail (December 18 - January 22, 2005)
Pixel Jack (May 21 - June 25, 2005) PICK
Pixel Working Space (July 16 - September 3, 2005)
1074 1252005189.thumb Stephanie Diamond, Homeslice (September 17 - October 28, 2005)
Pixel To Whom It May Concern… (November 12 - December 3, 2005)
1614 1252005965.thumb Being There (December 17 - February 4, 2006)
1872 1252006392.thumb Animal Magnetism (February 11 - March 11, 2006)
2290 1252008062.thumb North/South of Which Border? (April 15 - May 6, 2006)
2485 1252008371.thumb Permanent Adolescence (May 13 - June 10, 2006) PICK
2804 1252008860.thumb Satoshi Kawai & Fuminori Nakamura, Tokyo – Urban Agitation (July 8 - August 5, 2006)
2971 1252009125.thumb Working Space/06 (August 19 - September 23, 2006) PICK
3214 1252009554.thumb Shinique Smith, No Dust, No Stain (October 7 - November 11, 2006)
3614 1252010303.thumb Place Maker (December 2 - January 20, 2007)
3971 1252010901.thumb Lost and Found City (January 27 - February 3, 2007)
4064 1252011066.thumb Marcy Freedman, Marcy B. Freedman and Marcy Sue Freedman with resident artists Peter Coffin and Xylor Jane (February 10 - March 7, 2007)
4317 1252011546.thumb Yoko Inoue, Pos.it (March 17 - April 21, 2007)
4642 1252012162.thumb Larry Bamburg and Mai Braun, Exercises in Resourcefulness (May 5 - June 9, 2007)
5107 1252013056.thumb An Art(inter)Action Project and Benefit for Cuchifritos gallery/project space (June 30 - July 27, 2007)
5211 1252013256.thumb Working Space 07 (August 4 - September 8, 2007) PICK
5560 1252014902.thumb Up as if Down (September 22 - October 27, 2007) TOP PICK
6454 1252016373.thumb L.E.S. – Laterally Evolving Systems (February 9 - March 1, 2008)
6598 1252016614.thumb Works on Paper Benefit Opening (March 8 - March 15, 2008)
6786 1252016938.thumb If There Ever Was: An exhibition of extinct and impossible smells (March 22 - April 26, 2008)
7454 1252018141.thumb Corpus Kinetics (July 5 - July 26, 2008) PICK
7593 1252018395.thumb Working Space 08 (August 2 - September 20, 2008) PICK
7971 1252019103.thumb The LouvreFRITOS (September 27 - November 8, 2008)
8528 1252020209.thumb A Portion of the Pie (December 13 - December 21, 2008)
8676 1252020517.thumb A Relationship Left For Dead on the Lower East Side (January 10 - February 21, 2009) TOP PICK
9029 1252021196.thumb Data Panic (March 5 - April 18, 2009)
9507 1252022175.thumb Josephine Halvorson and Andy Rosen, Close to Home (May 2 - June 13, 2009)
9724 1252032042.thumb Feedback: Working Space 09 (June 20 - August 1, 2009)
9955 1252032397.thumb Hanging Out at No Rio (August 8 - September 12, 2009)
10238 1254844952.thumb The Shining Mantis: Mike Estabrook, and Ernest Concepcion (October 6 - October 10, 2009)
10314 1255984592.thumb Liberty & The Land, featuring works by Benny Andrews and William Villalongo (October 17 - November 28, 2009)
10566 1259874329.thumb Free Emporium & Gift Exchange (December 5 - January 9, 2010) PICK
10664 1262722912.thumb Yumi Janairo Roth: F.O.B (January 16 - March 6, 2010)
10973 1266962334.thumb Cafe Tschichold (March 13 - April 10, 2010)
11284 1271183191.thumb A Communist Gala, a benefit for artists by artists (April 17 - April 24, 2010) PICK
11374 1272384704.thumb InsideOUT (May 1 - June 19, 2010)
11703 1277224403.thumb Collected: Working Space 10 (June 25 - August 7, 2010)
12094 1284480083.thumb A Curious Thread (September 18 - October 30, 2010)
12347 1288013117.thumb The Chinese Encyclopedia (November 6 - December 4, 2010)
12552 1290529448.thumb Greg Bernhardt and Hannah Sessions: The Milk Is The Message (December 11 - January 15, 2011)
12818 1295375516.thumb Andrew Deutsch & Ann Hamilton: The First Line (Sounds for Drawing) (January 22 - March 6, 2011)
13445 1301088261.thumb Made & Unmade-Manuel Acevedo (March 12 - April 30, 2011)
13776 1304098164.thumb Dust to Settle (May 7 - June 26, 2011) PICK
14294 1309732703.thumb Intuitive Realities: Working Space ‘11 (July 2 - July 31, 2011)
14712 1315334203.thumb Suspicious Activities (August 27 - September 10, 2011)
15063 1317783840.thumb FAILED STATES (October 8 - November 6, 2011)
15477 1320775826.thumb Jones and Roa: Pulvis et Umbra (November 12 - December 18, 2011)
15998 1326556242.thumb Alison Owen: Shelf Life (January 21 - March 4, 2012)